1324860628805,0.000159586
1324860688805,0.000160642
1324860748805,0.000157830
1324860808805,0.000159169
1324860868805,0.000157721
1324864228815,0.000163922
1324864288815,0.000163126
1324864348815,0.000160074
1324864408815,0.000159428
1324864468815,0.000161690
1324867828826,0.000163657
1324867888826,0.000164744
1324867948826,0.000164776
1324868008826,0.000162224
1324868068826,0.000164536
1324871428836,0.000159232
1324871488836,0.000161727
1324871548836,0.000159297
1324871608836,0.000159471
1324871668836,0.000161031
1324875028847,0.000160784
1324875088847,0.000160604
1324875148847,0.000162125
1324875208847,0.000161186
1324875268847,0.000158685
1324878628857,0.000161319
1324878688857,0.000162988
1324878748857,0.000161806
1324878808857,0.000163091
1324878868857,0.000163398
1324882228868,0.000163978
1324882288868,0.000162172
1324882348868,0.000160802
1324882408868,0.000161164
1324882468868,0.000162327
1324885828879,0.000158808
1324885888879,0.000159657
1324885948879,0.000159188
1324886008880,0.000159982
1324886068880,0.000161851
1324889428891,0.000160955
1324889488891,0.000160077
1324889548891,0.000157984
1324889608891,0.000159243
1324889668891,0.000160785
1324893028903,0.000164808
1324893088903,0.000166101
1324893148903,0.000162999
1324893208903,0.000164650
1324893268903,0.000164754
1324896628914,0.000158198
1324896688914,0.000158556
1324896748914,0.000157775
1324896808914,0.000155845
1324896868914,0.000156747
1324900228926,0.000170954
1324900288926,0.000170322
1324900348926,0.000170240
1324900408926,0.000170786
1324900468926,0.000168361
1324903828938,0.000165420
1324903888938,0.000164369
1324903948938,0.000164413
1324904008938,0.000163227
1324904068938,0.000163973
1324907428950,0.000161496
1324907488950,0.000163796
1324907548950,0.000164281
1324907608950,0.000163525
1324907668950,0.000163149
1324911028962,0.000162009
1324911088962,0.000161013
1324911148962,0.000160686
1324911208962,0.000162566
1324911268962,0.000161201
1324914628974,0.000162406
1324914688974,0.000161291
1324914748974,0.000160806
1324914808974,0.000160397
1324914868974,0.000160499
1324918228986,0.000163033
1324918288986,0.000165186
1324918348986,0.000162717
1324918408986,0.000165291
1324918468986,0.000164042
1324921828998,0.000163921
1324921888998,0.000163109
1324921948998,0.000166042
1324922008998,0.000164683
1324922068998,0.000164159
1324925429009,0.000163234
1324925489009,0.000160947
1324925549009,0.000159125
1324925609009,0.000160044
1324925669009,0.000160476
1324929029021,0.000163345
1324929089021,0.000164891
1324929149021,0.000163906
1324929209021,0.000163684
1324929269021,0.000163094
1324929329021,0.000164930
1324929389021,0.000164418
1324929449021,0.000167054
1324929509021,0.000165993
1324929569021,0.000165423
1324929629032,0.000166148
1324929689032,0.000167653
1324929749032,0.000167100
1324929809032,0.000166367
1324929869032,0.000164215
1324929929032,0.000164655
1324929989032,0.000166904
1324930049032,0.000163719
1324930109032,0.000163395
1324930169032,0.000164018
1324930229032,0.000164814
1324930289032,0.000163912
1324930349032,0.000163204
1324930409032,0.000164074
1324930469032,0.000164922
1324930529032,0.000168028
1324930589032,0.000198193
1324930649032,0.000191327
1324930709032,0.000182187
1324930769032,0.000173015
1324930829032,0.000172708
1324930889032,0.000172250
1324930949032,0.000169554
1324931009032,0.000174899
1324931069032,0.000179268
1324931129032,0.000178902
1324931189032,0.000182027
1324931249032,0.000181364
1324931309032,0.000182333
1324931369032,0.000183855
1324931429032,0.000181498
1324931489032,0.000187114
1324931549032,0.000184447
1324931609032,0.000180466
1324931669032,0.000174927
1324931729032,0.000172129
1324931789032,0.000176348
1324931849032,0.000176025
1324931909032,0.000171494
1324931969032,0.000169297
1324932029032,0.000167055
1324932089032,0.000168109
1324932149032,0.000171501
1324932209032,0.000168509
1324932269032,0.000167576
1324932329032,0.000167761
1324932389032,0.000168788
1324932449032,0.000165838
1324932509032,0.000166442
1324932569032,0.000165303
1324932629032,0.000165403
1324932689032,0.000167423
1324932749032,0.000165620
1324932809032,0.000165328
1324932869032,0.000167300
1324932929032,0.000163819
1324932989032,0.000163694
1324933049032,0.000163949
1324933109032,0.000164966
1324933169032,0.000163491
1324933229043,0.000165297
1324933289043,0.000166244
1324933349043,0.000166574
1324933409043,0.000166065
1324933469043,0.000166485
1324933529043,0.000164926
1324933589043,0.000166336
1324933649043,0.000166543
1324933709043,0.000164638
1324933769043,0.000166272
1324933829043,0.000167963
1324933889043,0.000165296
1324933949043,0.000164835
1324934009043,0.000165548
1324934069043,0.000166936
1324934129043,0.000165721
1324934189043,0.000167159
1324934249043,0.000166286
1324934309043,0.000165252
1324934369043,0.000163099
1324934429043,0.000164080
1324934489043,0.000163254
1324934549043,0.000162515
1324934609043,0.000161820
1324934669043,0.000164153
1324934729043,0.000164083
1324934789043,0.000162767
1324934849043,0.000161455
1324934909043,0.000162742
1324934969043,0.000162225
1324935029043,0.000164594
1324935089043,0.000164999
1324935149043,0.000163563
1324935209043,0.000164763
1324935269043,0.000162411
1324935329043,0.000164019
1324935389043,0.000162552
1324935449043,0.000161112
1324935509043,0.000160721
1324935569043,0.000166635
1324935629043,0.000165526
1324935689043,0.000166983
1324935749043,0.000167315
1324935809043,0.000167060
1324935869043,0.000164065
1324935929043,0.000161641
1324935989043,0.000163876
1324936049043,0.000163330
1324936109043,0.000164016
1324936169043,0.000159766
1324936229043,0.000160246
1324936289043,0.000164206
1324936349043,0.000162173
1324936409043,0.000162243
1324936469043,0.000161859
1324936529043,0.000163956
1324936589043,0.000164018
1324936649043,0.000164105
1324936709043,0.000163585
1324936769043,0.000162891
1324936829054,0.000163127
1324936889054,0.000163022
1324936949054,0.000162491
1324937009054,0.000164582
1324937069054,0.000162301
1324937129054,0.000162798
1324937189054,0.000163682
1324937249054,0.000164989
1324937309054,0.000165449
1324937369054,0.000165387
1324937429054,0.000166674
1324937489054,0.000163374
1324937549054,0.000163979
1324937609054,0.000163654
1324937669054,0.000163092
1324937729054,0.000161606
1324937789054,0.000163453
1324937849054,0.000163356
1324937909054,0.000161911
1324937969054,0.000162509
1324938029054,0.000164030
1324938089054,0.000164485
1324938149054,0.000163905
1324938209054,0.000165494
1324938269054,0.000166659
1324938329054,0.000167831
1324938389054,0.000167749
1324938449054,0.000167058
1324938509054,0.000168789
1324938569054,0.000170080
1324938629054,0.000169889
1324938689054,0.000168965
1324938749054,0.000168481
1324938809054,0.000164716
1324938869054,0.000166041
1324938929054,0.000165265
1324938989054,0.000164563
1324939049054,0.000163530
1324939109054,0.000163034
1324939169054,0.000162143
1324939229054,0.000161578
1324939289054,0.000163224
1324939349054,0.000163433
1324939409054,0.000164119
1324939469054,0.000164859
1324939529054,0.000162945
1324939589054,0.000164866
1324939649054,0.000164101
1324939709054,0.000163566
1324939769054,0.000164330
1324939829054,0.000165359
1324939889054,0.000164539
1324939949054,0.000168326
1324940009054,0.000167826
1324940069054,0.000163674
1324943429065,0.000166391
1324943489065,0.000166423
1324943549065,0.000164929
1324943609065,0.000165009
1324943669065,0.000165280
